Regional Weather Roundup
Issued by NWS Goodland, KS

Home | Current Version | Previous Version | Graphics & Text | Print | Product List | Glossary On
Versions: 1 2 3 4 5 6 7 8 9 10 11 12 13 14 15 16 17 18 19 20 21 22 23 24 25 26 27 28 29 30 31 32 33 34 35 36 37 38 39 40 41 42 43 44 45 46 47 48 49 50
267
ASUS43 KGLD 021259
RWRGLD

GOODLAND FORECAST AREA HOURLY WEATHER ROUNDUP
NATIONAL WEATHER SERVICE GOODLAND KS
600 AM MST FRI DEC 02 2016

...OFFICIAL OBSERVATIONS...

CITY           SKY/WX    TMP DP  RH WIND       PRES   REMARKS
GOODLAND KS    CLEAR     16   9  74 W7        30.13R
HILL CITY KS   CLEAR     17  11  77 W6        30.18R
IMPERIAL NEB   PTCLDY    20  13  74 NW8       30.16R
MCCOOK NEB     CLEAR     18  12  77 W12       30.17R WCI   5
AKRON CO       CLOUDY    23  15  71 NW5       30.11R
BURLINGTON CO  CLEAR     14   6  70 W8        30.13R
LIMON CO       CLOUDY    10   6  84 W3        30.10R
$$

...UNOFFICIAL OBSERVATIONS...

CITY           SKY/WX    TMP DP  RH WIND       PRES   REMARKS
COLBY KS       CLEAR     10   9  92 W9        30.15R
LENORA KS        N/A     21  32 100 MISG        N/A
NORTON KS      CLEAR     19  10  68 W5        30.16
SHARON SPRINGS   N/A     16   8  71 W7          N/A
TRENTON NEB      N/A     16  32 100 CALM        N/A
YUMA CO        FAIR      19  14  79 NW7       30.13R
$$




USA.gov is the U.S. government's official web portal to all federal, state and local government web resources and services.